sat.trackr.live / text

‹ back to catalog

STARLINK-33966

NORAD 64203 · 2025-117A

PAYLOAD ACTIVE UNKNOWN

§ Identity

Operator
Country
US
Launch date
2025-05-31
Launch site
AFWTR
Launch vehicle
Mass (kg)
RCS (m²)

Purposes: comms

External: N2YO · Heavens-Above · Gunter

§ Orbital elements

Epoch: 2026-05-25T03:40:35.692032Z

Period
94.10 min
Inclination
53.1591°
Eccentricity
0.0001013
Mean motion
15.30210690 rev/d
Perigee alt
474.5 km
Apogee alt
475.9 km
Semi-major
6,853.3 km
B*
6.5253e-4
RAAN
44.3676°
Arg perigee
88.5572°
Mean anomaly
271.5545°
Rev number
5,626

§ Raw data

STARLINK-339661 64203U 25117A   26145.15319088  .00019023  00000+0  65253-3 0  99922 64203  53.1591  44.3676 0001013  88.5572 271.5545 15.30210690 56266

JSON: /api/v1/satellites/64203 · /tle

For live sub-satellite position, see the globe view (requires WebGL).

§ Visibility from observer

Set your observer location to see the next 7 days of passes ≥ 10°. The values pass through the URL so the page stays shareable.

No JS? Fill the form by hand. The geolocation button needs JavaScript.